• MPC Preparation (Info)

  • MPEC 2022-L71 : 2022 LH2

    The following Minor Planet Electronic Circular may be linked-to from your own Web pages, but must not otherwise be redistributed electronically.

    A form allowing access to any MPEC is at the bottom of this page.


    Read MPEC 2022-L70 Read MPEC 2022-L72


    M.P.E.C. 2022-L71                                  Issued 2022 June 8, 23:33 UT
    
         The Minor Planet Electronic Circulars contain information on unusual
             minor planets and routine data on comets.  They are published
        on behalf of Division F of the International Astronomical Union by the
              Minor Planet Center, Smithsonian Astrophysical Observatory,
                              Cambridge, MA 02138, U.S.A.
    
                 Prepared using the Tamkin Foundation Computer Network
    
                                  MPC@CFA.HARVARD.EDU
                URL https://www.minorplanetcenter.net/    ISSN 1523-6714
    
                                    2022 LH2                                 
    
    
    Observations:
         K22L02H*HC2022 06 07.26213815 18 55.390+16 26 09.40               VEL071G96
         K22L02H HC2022 06 07.26731315 18 47.580+16 23 01.60         19.52GVEL071G96
         K22L02H HC2022 06 07.27248515 18 39.660+16 19 52.60               VEL071G96
         K22L02H HC2022 06 07.27767215 18 31.720+16 16 42.20         19.65GVEL071G96
         K22L02H KC2022 06 07.30288 15 17 55.72 +16 00 56.2          19.2 GVEL071U52
         K22L02H KC2022 06 07.30740 15 17 49.14 +15 58 07.3          18.9 GVEL071U52
         K22L02H KC2022 06 07.31785 15 17 33.02 +15 51 46.0          19.4 GVEL071U52
         K22L02H KC2022 06 07.32238 15 17 26.17 +15 48 55.8          19.6 GVEL071U52
         K22L02H  C2022 06 07.33200015 17 10.309+15 43 20.94         19.8 GVEL071654
         K22L02H mC2022 06 07.33475415 17 04.931+15 41 42.36         19.54GVEL071I52
         K22L02H mC2022 06 07.33506515 17 04.430+15 41 30.70         19.78GVEL071I52
         K22L02H  C2022 06 07.33528215 17 05.308+15 41 19.72         19.8 GVEL071654
         K22L02H mC2022 06 07.33536815 17 03.959+15 41 19.57         19.83GVEL071I52
         K22L02H mC2022 06 07.33567215 17 03.523+15 41 08.20         19.84GVEL071I52
         K22L02H  C2022 06 07.36204415 16 24.656+15 24 46.32         19.7 GVEL071654
         K22L02H mC2022 06 07.38818515 15 44.068+15 08 32.57         19.79GVEL071I52
         K22L02H mC2022 06 07.38836115 15 43.837+15 08 25.66         19.69GVEL071I52
         K22L02H mC2022 06 07.38853715 15 43.553+15 08 19.10         19.80GVEL071I52
         K22L02H mC2022 06 07.38871415 15 43.297+15 08 12.73         20.18GVEL071I52
         K22L02H  C2022 06 07.39708515 15 31.627+15 02 57.31         20.0 GVEL071654
         K22L02H HC2022 06 07.78677515 06 07.37 +10 55 47.7          19.3 GVEL071M21
         K22L02H KC2022 06 07.84607 15 04 34.56 +10 12 57.9          19.7 GVEL071104
         K22L02H KC2022 06 07.85478115 04 20.862+10 07 08.53         20.0 GVEL071K63
         K22L02H KC2022 06 07.85508 15 04 20.45 +10 06 56.4          19.6 GVEL071104
         K22L02H KC2022 06 07.85859 15 04 14.97 +10 04 36.6                VEL071104
         K22L02H KC2022 06 07.85890715 04 14.316+10 04 22.88         19.2 GVEL071K63
         K22L02H KC2022 06 07.87834615 03 45.96 +09 51 23.6          19.2 GXEL071958
         K22L02H KC2022 06 07.88280615 03 38.97 +09 48 25.0          19.1 GXEL071958
         K22L02H KC2022 06 07.88723515 03 32.02 +09 45 26.9                XEL071958
         K22L02H KC2022 06 07.89630715 03 16.10 +09 39 15.5          19.8 GVEL071203
         K22L02H KC2022 06 07.90730215 02 58.83 +09 31 52.2          19.8 GVEL071203
         K22L02H KC2022 06 07.92309615 02 34.09 +09 21 13.1          19.8 GVEL071203
         K22L02H KC2022 06 07.96281 15 01 31.87 +08 54 20.2          19.7 GVEL071204
         K22L02H HC2022 06 07.97660 15 01 10.30 +08 44 58.3                VEL071204
         K22L02H KC2022 06 08.11885114 57 40.92 +07 07 55.0          19.4 VuEL071H21
         K22L02H KC2022 06 08.12008614 57 38.96 +07 07 03.6          19.5 VuEL071H21
         K22L02H KC2022 06 08.12132114 57 37.02 +07 06 12.7          19.3 VuEL071H21
         K22L02H KC2022 06 08.12255414 57 35.05 +07 05 21.3          19.2 VuEL071H21
         K22L02H  C2022 06 08.23808014 54 36.076+05 45 21.77         19.8 GVEL071654
         K22L02H  C2022 06 08.27104914 53 43.254+05 22 17.99         19.2 GVEL071654
         K22L02H mC2022 06 08.29653514 53 01.104+05 04 29.68         19.26GVEL071I52
         K22L02H mC2022 06 08.29670014 53 00.856+05 04 23.20         19.65GVEL071I52
         K22L02H mC2022 06 08.29686514 53 00.578+05 04 15.96         19.92GVEL071I52
         K22L02H mC2022 06 08.29703014 53 00.348+05 04 08.83         19.26GVEL071I52
         K22L02H  C2022 06 08.30031714 52 56.355+05 01 45.26         19.4 GVEL071654
         K22L02H KC2022 06 08.88981 14 37 45.66 -02 00 14.3          19.4 GXEL071Z41
         K22L02H KC2022 06 08.89022 14 37 44.98 -02 00 32.0          19.3 GXEL071Z41
         K22L02H KC2022 06 08.89045 14 37 44.60 -02 00 42.2          19.4 GXEL071Z41
         K22L02H KC2022 06 08.89206 14 37 41.93 -02 01 51.8          19.1 GXEL071Z41
         K22L02H KC2022 06 08.89630 14 37 35.05 -02 04 56.1          19.1 GXEL071Z41
         K22L02H KC2022 06 08.91294914 37 07.35 -02 17 07.7          19.7 GXEL071I93
         K22L02H KC2022 06 08.91646614 37 01.62 -02 19 40.8          19.9 GXEL071I93
         K22L02H KC2022 06 08.92117514 36 54.01 -02 23 05.1          20.5 GXEL071I93
         K22L02H KC2022 06 08.95090514 36 06.088-02 44 55.27         19.3 GVEL071Z99
         K22L02H KC2022 06 08.95307414 36 02.543-02 46 29.27         19.8 GVEL071Z99
         K22L02H KC2022 06 08.95511314 35 59.285-02 47 57.27         19.5 GVEL071Z99
    
    Observer details:
    104 San Marcello Pistoiese.  Observers P. Bacci, M. Maestripieri.  Measurers
        P. Bacci, L. Tesi, G. Fagioli.  0.60-m F4 Reflector + CCD.
    203 GiaGa Observatory.  Observers S. Foglia, G. Galli.  Measurer G. Galli.
        0.36-m f/5.76 Schmidt-Cassegrain + CCD.
    204 Schiaparelli Observatory.  Observer L. Buzzi.  0.84-m f/3.5 reflector +
        CCD.
    654 Table Mountain Observatory, Wrightwood-PHMC.  Observers N. Evans, P. Choi,
        N. Saini, C. Zhai, R. Trahan, M. Shao.  1.0-m Reflector + CCD.
    958 Observatoire de Dax.  Observer P. Dupouy.  0.50-m f/6 Reflector + CCD.
    G96 Mt. Lemmon Survey.  Observer A. Serrano.  Measurers E. J. Christensen, D.
        Fay, J. B. Fazekas, D. C. Fuls, A. R. Gibbs, A. D. Grauer, H. Groeller, J.
        K. Hogan, R. A. Kowalski, S. M. Larson, G. J. Leonard, D. Rankin, R. L.
        Seaman, A. Serrano, F. C. Shelly, K. W. Wierzchos.  1.5-m reflector + 10K
        CCD.
    H21 Astronomical Research Observatory, Westfield.  Observer R. Holmes.
        Measurers T. Linder, R. Holmes, L. Horn.  0.76-m f/3.0 astrograph + CCD.
    I52 Steward Observatory, Mt. Lemmon Station.  Observers G. J. Leonard, D.
        Rankin.  Measurers E. J. Christensen, D. Fay, J. B. Fazekas, D. C. Fuls,
        A. R. Gibbs, A. D. Grauer, H. Groeller, J. K. Hogan, R. A. Kowalski, S. M.
        Larson, G. J. Leonard, D. Rankin, R. L. Seaman, A. Serrano, F. C. Shelly,
        K. W. Wierzchos.  1.0-m prime focus + CCD.
    I93 St Pardon de Conques.  Observer F. Losse.  0.40-m f/3.7 reflector + CCD.
    K63 G. Pascoli Observatory, Castelvecchio Pascoli.  Observer R. Bacci.  0.41-m
        f/3.21 0.41m f/3.2  Newton + CCD.
    M21 Schiaparelli Southern Observatory, Hakos.  Observers A. Aletti, F.
        Bellini, L. Buzzi, G. Galli.  Measurer L. Buzzi.  0.36-m f/8.4 reflector +
        CCD.
    U52 Shasta Valley Observatory, Grenada.  Observer J. E. Rogers.  Measurers J.
        E. Rogers, D. Parrott.  0.30-m Helin Telescope + CCD.
    Z41 Irydeo Observatory, Camarma de Esteruelas.  Observer F. Calvo.  0.30-m f/8
        reflector + CCD.
    Z99 Clixby Observatory, Cleethorpes.  Observer A. Mickleburgh.  0.356-m f/8
        Schmidt-Cassegrain + CCD.
    
    Orbital elements:
    2022 LH2                                                 Earth MOID = 0.0339 AU
    Epoch 2022 Aug. 9.0 TT = JDT 2459800.5                  Veres                   
    M  47.57794              (2000.0)            P               Q                  
    n   0.79210435     Peri.  180.08201     -0.22418562     +0.78939321             
    a   1.1568608      Node    76.97858     -0.89379460     +0.06718005             
    e   0.0934911      Incl.   35.91410     -0.38842248     -0.61020095             
    P   1.24           H   24.77          G   0.15           U   8                  
    Residuals in seconds of arc
    220607 G96  0.3-  0.1-    220607 654  0.2+  0.1-    220608 654  0.4-  0.2-
    220607 G96 (0.7+  0.7+)   220607 M21  0.1-  0.3-    220608 654  0.1+  0.1+
    220607 G96  0.1+  0.4+    220607 104  1.1+  0.1-    220608 I52  0.3-  0.1-
    220607 G96  0.4-  0.5-    220607 K63  0.8-  0.6-    220608 I52  0.0   0.4+
    220607 U52  0.2+  2.0+    220607 104  0.8+  0.8-    220608 I52  0.2-  0.1+
    220607 U52 (4.3+  0.9-)   220607 104  1.0+  0.1+    220608 I52  0.2+  0.1-
    220607 U52  0.7+  2.3+    220607 K63 (2.1-  0.8-)   220608 654  0.1+  0.0
    220607 U52  1.1+  0.9-    220607 958  1.4+  0.1+    220608 Z41  0.5+  0.2-
    220607 654  0.1+  0.1-    220607 958  1.4+  0.8+    220608 Z41  0.4+  0.1-
    220607 I52  0.4+  0.1+    220607 958  1.3+  0.9+    220608 Z41  0.3+  0.3-
    220607 I52  0.1-  0.1-    220607 203  0.2+  0.4-    220608 Z41  0.4-  0.0
    220607 654  0.0   0.1+    220607 203  0.3-  0.1+    220608 Z41  0.2+  0.3-
    220607 I52  0.2-  0.0     220607 203  0.2+  0.3-    220608 I93  0.2-  0.5+
    220607 I52  0.1+  0.1-    220607 204  0.1+  0.2+    220608 I93  0.2-  0.1+
    220607 654  0.1+  0.1-    220607 204  0.5+  0.4+    220608 I93  0.7+  0.2+
    220607 I52  0.2-  0.0     220608 H21  0.1-  0.4+    220608 Z99  0.2+  0.4-
    220607 I52  0.3+  0.3-    220608 H21  0.1-  0.2+    220608 Z99  0.3-  0.3-
    220607 I52  0.0   0.2-    220608 H21  0.2+  0.4+    220608 Z99  0.3+  0.2+
    220607 I52  0.1+  0.0     220608 H21  0.0   0.0
    
    Ephemeris:
    2022 LH2                 a,e,i = 1.16, 0.09, 36                  q = 1.0487
    Date    TT    R. A. (2000) Decl.     Delta      r    Elong.  Phase     V
    2022 05 09    19 01 35.0 +57 42 42   0.3205  1.0611    90.4    72.0    24.9
    ...
    2022 05 24    18 20 11.6 +55 32 35   0.1749  1.0522    98.3    72.2    23.6
    ...
    2022 06 01    17 14 00.9 +48 11 42   0.09627 1.0497   109.3    65.8    22.1
    ...
    2022 06 07    15 25 16.5 +19 02 14   0.04947 1.0488   132.4    45.6    20.1
    2022 06 08    15 00 40.7 +08 31 35   0.04585 1.0487   136.7    41.6    19.8
    2022 06 09    14 34 52.9 -03 17 07   0.04455 1.0487   138.3    40.1    19.7
    ...
    2022 06 15    12 09 50.7 -49 02 17   0.07782 1.0490   113.4    62.7    21.6
    ...
    2022 06 23    10 27 44.4 -59 34 04   0.1546  1.0508    98.7    73.0    23.4
    ...
    2022 07 08    09 25 46.7 -62 45 49   0.3018  1.0584    89.6    73.9    24.9
    
    M. P. C. Staff               (C) Copyright 2022 MPC           M.P.E.C. 2022-L71
    


    Read MPEC 2022-L70 Read MPEC 2022-L72


    MPEC number:

    Enter an MPEC number in one of the following forms:

    • 1997-B01 (the full form)
    • J97B01 (the packed version of the full form)
    • B01 (the abbreviated form)